Weather History for Eagle, CO

Change the Weather History Date:

Tuesday, October 30, 2012

  Actual Average Record
Temperature  
Mean Temperature 44 °F -  
Max Temperature 64 °F 52 °F 74 °F (1950)
Min Temperature 24 °F 22 °F 4 °F (1993)
Degree Days  
Heating Degree Days 21    
Moisture  
Dew Point 25 °F    
Average Humidity 60    
Maximum Humidity 93    
Minimum Humidity 21    
Precipitation  
Precipitation 0.00 in - - ()
Sea Level Pressure  
Sea Level Pressure 30.27 in    
Wind  
Wind Speed 1 mph (ESE)    
Max Wind Speed 9 mph    
Max Gust Speed -    
Visibility 10 miles    
Events      
Averages and records for this station are not official NWS values.
T = Trace of Precipitation, MM = Missing Value Source: NWS Daily Summary

Daily Weather History Graph

Daily Weather History Graph

Search for Another Location

Airport:

Trip Planner

Search our weather history database for the weather conditions in past years. The results will help you decide how hot, cold, wet, or windy it might be!

Date:

Astronomy

Oct. 30, 2012 Rise Set
Actual Time 7:34 AM MDT 6:07 PM MDT
Civil Twilight 7:06 AM MDT 6:35 PM MDT
Nautical Twilight 6:34 AM MDT 7:07 PM MDT
Astronomical Twilight 6:03 AM MDT 7:38 PM MDT
Moon 6:39 PM MDT (10/30) 8:23 AM MDT (10/30)
Length of Visible Light 11h 28m
Length of Day
10h 33m
Full, 99% of the Moon is Illuminated
Oct 30
Full
Nov 6
Last Quarter
Nov 13
New
Nov 20
First Quarter
Nov 28
Full

Hourly Weather History & Observations

Time (MDT) Temp. Windchill Dew Point Humidity Pressure Visibility Wind Dir Wind Speed Gust Speed Precip Events Conditions
12:15 AM 37.4 °F - 26.6 °F 65% 30.29 in 10.0 mi Calm Calm - N/A   Clear
12:35 AM 33.8 °F - 24.8 °F 70% 30.30 in 10.0 mi Calm Calm - N/A   Clear
1:55 AM 33.8 °F 30.8 °F 24.8 °F 70% 30.30 in 10.0 mi ESE 3.5 mph - N/A   Clear
2:15 AM 32.0 °F 28.7 °F 26.6 °F 80% 30.31 in 10.0 mi SE 3.5 mph - N/A   Clear
2:55 AM 32.0 °F - 26.6 °F 80% 30.32 in 10.0 mi Calm Calm - N/A   Clear
3:15 AM 30.2 °F - 26.6 °F 86% 30.32 in 10.0 mi Calm Calm - N/A   Clear
3:35 AM 30.2 °F - 24.8 °F 80% 30.32 in 10.0 mi Calm Calm - N/A   Clear
3:55 AM 30.2 °F - 24.8 °F 80% 30.32 in 10.0 mi Calm Calm - N/A   Clear
4:15 AM 28.4 °F - 24.8 °F 86% 30.32 in 10.0 mi Calm Calm - N/A   Clear
4:35 AM 28.4 °F 24.6 °F 24.8 °F 86% 30.33 in 10.0 mi ESE 3.5 mph - N/A   Clear
4:55 AM 28.4 °F - 24.8 °F 86% 30.33 in 10.0 mi Calm Calm - N/A   Clear
5:15 AM 28.4 °F - 24.8 °F 86% 30.33 in 10.0 mi Calm Calm - N/A   Clear
5:35 AM 28.4 °F - 24.8 °F 86% 30.33 in 10.0 mi Calm Calm - N/A   Clear
6:15 AM 28.4 °F - 24.8 °F 86% 30.33 in 10.0 mi Calm Calm - N/A   Clear
6:35 AM 26.6 °F - 24.8 °F 93% 30.34 in 10.0 mi Calm Calm - N/A   Clear
6:50 AM 26.6 °F - 24.8 °F 93% 30.34 in 10.0 mi Calm Calm - N/A   Partly Cloudy
7:50 AM 24.8 °F 17.9 °F 23.0 °F 93% 30.35 in 10.0 mi Variable 5.8 mph - N/A   Partly Cloudy
8:50 AM 28.4 °F - 24.8 °F 86% 30.36 in 10.0 mi Calm Calm - N/A   Partly Cloudy
9:50 AM 33.8 °F - 24.8 °F 70% 30.35 in 10.0 mi Calm Calm - N/A   Partly Cloudy
11:56 AM 46.4 °F - 26.6 °F 46% 30.30 in 10.0 mi Calm Calm - N/A   Partly Cloudy
12:56 PM 53.6 °F - 26.6 °F 35% 30.25 in 10.0 mi Calm Calm - N/A   Partly Cloudy
1:46 PM 57.2 °F - 24.8 °F 29% 30.22 in 10.0 mi Calm Calm - N/A   Partly Cloudy
2:59 PM 62.6 °F - 23.0 °F 22% 30.19 in 10.0 mi Calm Calm - N/A   Partly Cloudy
3:59 PM 62.6 °F - 23.0 °F 22% 30.18 in 10.0 mi Calm Calm - N/A   Partly Cloudy
4:54 PM 64.4 °F - 23.0 °F 21% 30.17 in 10.0 mi Calm Calm - N/A   Partly Cloudy
5:50 PM 60.8 °F - 24.8 °F 25% 30.18 in 10.0 mi WSW 4.6 mph - N/A   Partly Cloudy
6:45 PM 53.6 °F - 24.8 °F 33% 30.20 in 10.0 mi ESE 5.8 mph - N/A   Partly Cloudy
7:15 PM 51.8 °F - 24.8 °F 35% 30.21 in 10.0 mi East 5.8 mph - N/A   Clear
7:35 PM 50.0 °F - 24.8 °F 37% 30.22 in 10.0 mi ENE 3.5 mph - N/A   Clear
7:55 PM 48.2 °F - 24.8 °F 40% 30.22 in 10.0 mi East 5.8 mph - N/A   Clear
8:15 PM 48.2 °F - 26.6 °F 43% 30.22 in 10.0 mi East 9.2 mph - N/A   Clear
8:35 PM 46.4 °F 43.5 °F 26.6 °F 46% 30.22 in 10.0 mi East 5.8 mph - N/A   Clear
8:55 PM 46.4 °F - 26.6 °F 46% 30.23 in 10.0 mi Calm Calm - N/A   Clear
9:15 PM 46.4 °F - 26.6 °F 46% 30.23 in 10.0 mi Calm Calm - N/A   Clear
9:35 PM 44.6 °F 42.2 °F 26.6 °F 49% 30.23 in 10.0 mi East 4.6 mph - N/A   Clear
9:55 PM 42.8 °F 40.1 °F 26.6 °F 53% 30.24 in 10.0 mi SE 4.6 mph - N/A   Clear
10:15 PM 41.0 °F 38.0 °F 24.8 °F 53% 30.24 in 10.0 mi SSE 4.6 mph - N/A   Clear
10:35 PM 42.8 °F 41.1 °F 26.6 °F 53% 30.25 in 10.0 mi South 3.5 mph - N/A   Clear
10:55 PM 41.0 °F - 24.8 °F 53% 30.26 in 10.0 mi Calm Calm - N/A   Clear
11:15 PM 39.2 °F 35.9 °F 24.8 °F 56% 30.26 in 10.0 mi SE 4.6 mph - N/A   Clear
11:35 PM 37.4 °F 33.8 °F 24.8 °F 60% 30.27 in 10.0 mi NE 4.6 mph - N/A   Clear
11:55 PM 37.4 °F 34.9 °F 24.8 °F 60% 30.27 in 10.0 mi South 3.5 mph - N/A   Clear